Weather History for Marshfield, MA

Change the Weather History Date:

Thursday, March 21, 2013

  Actual Average (KPYM) Record (KPYM)
Temperature  
Mean Temperature 30 °F -  
Max Temperature 35 °F 48 °F 75 °F (2012)
Min Temperature 26 °F 26 °F 7 °F (1967)
Degree Days  
Heating Degree Days 34    
Moisture  
Dew Point 27 °F    
Average Humidity 82    
Maximum Humidity 100    
Minimum Humidity 56    
Precipitation  
Precipitation 0.11 in - - ()
Sea Level Pressure  
Sea Level Pressure 29.73 in    
Wind  
Wind Speed 3 mph (NNW)    
Max Wind Speed 10 mph    
Max Gust Speed -    
Visibility 7 miles    
Events Rain , Snow    
Averages and records for this station are not official NWS values.
T = Trace of Precipitation, MM = Missing Value Source: NWS Daily Summary

Daily Weather History Graph

Daily Weather History Graph

Search for Another Location

Airport:

Trip Planner

Search our weather history database for the weather conditions in past years. The results will help you decide how hot, cold, wet, or windy it might be!

Date:

Astronomy

Mar. 21, 2013 Rise Set
Actual Time 6:43 AM EDT 6:56 PM EDT
Civil Twilight 6:16 AM EDT 7:24 PM EDT
Nautical Twilight 5:43 AM EDT 7:57 PM EDT
Astronomical Twilight 5:09 AM EDT 8:30 PM EDT
Moon 1:18 PM EDT (3/21) 3:08 AM EDT (3/21)
Length of Visible Light 13h 08m
Length of Day
12h 12m
Waxing Gibbous, 68% of the Moon is Illuminated
Mar 21
Waxing Gibbous
Mar 27
Full
Apr 3
Last Quarter
Apr 10
New
Apr 18
First Quarter

Hourly Weather History & Observations

Time (EDT) Temp. Windchill Dew Point Humidity Pressure Visibility Wind Dir Wind Speed Gust Speed Precip Events Conditions
12:15 AM 28.4 °F 24.6 °F 23.0 °F 80% 29.83 in 10.0 mi West 3.5 mph - N/A   Clear
12:35 AM 28.4 °F 24.6 °F 23.0 °F 80% 29.82 in 10.0 mi West 3.5 mph - N/A   Clear
12:55 AM 26.6 °F - 23.0 °F 86% 29.83 in 10.0 mi Calm Calm - N/A   Clear
1:15 AM 26.6 °F - 23.0 °F 86% 29.83 in 10.0 mi Calm Calm - N/A   Clear
1:35 AM 26.6 °F 22.6 °F 23.0 °F 86% 29.84 in 10.0 mi WSW 3.5 mph - N/A   Mostly Cloudy
2:15 AM 28.4 °F - 23.0 °F 80% 29.84 in 10.0 mi Calm Calm - N/A   Partly Cloudy
2:35 AM 28.4 °F - 23.0 °F 80% 29.83 in 10.0 mi Calm Calm - N/A   Clear
2:55 AM 28.4 °F - 24.8 °F 86% 29.83 in 10.0 mi Calm Calm - N/A   Clear
3:15 AM 28.4 °F - 24.8 °F 86% 29.82 in 10.0 mi Calm Calm - N/A   Clear
3:35 AM 28.4 °F 24.6 °F 24.8 °F 86% 29.82 in 10.0 mi West 3.5 mph - N/A   Partly Cloudy
3:55 AM 28.4 °F 24.6 °F 24.8 °F 86% 29.81 in 10.0 mi West 3.5 mph - N/A   Partly Cloudy
4:15 AM 28.4 °F - 24.8 °F 86% 29.81 in 10.0 mi Calm Calm - N/A   Mostly Cloudy
4:35 AM 28.4 °F - 24.8 °F 86% 29.80 in 10.0 mi Calm Calm - N/A   Scattered Clouds
4:55 AM 30.2 °F - 24.8 °F 80% 29.81 in 10.0 mi Calm Calm - N/A   Clear
5:15 AM 30.2 °F - 24.8 °F 80% 29.80 in 10.0 mi Calm Calm - N/A   Clear
5:35 AM 30.2 °F - 26.6 °F 86% 29.80 in 10.0 mi Calm Calm - N/A   Clear
5:55 AM 32.0 °F - 23.0 °F 69% 29.80 in 10.0 mi Calm Calm - N/A   Clear
6:15 AM 32.0 °F - 23.0 °F 69% 29.80 in 10.0 mi Calm Calm - N/A   Partly Cloudy
6:35 AM 32.0 °F - 23.0 °F 69% 29.80 in 10.0 mi Calm Calm - N/A   Partly Cloudy
6:55 AM 30.2 °F - 23.0 °F 75% 29.80 in 10.0 mi Calm Calm - N/A   Partly Cloudy
7:15 AM 30.2 °F - 23.0 °F 75% 29.80 in 10.0 mi Calm Calm - N/A   Clear
7:35 AM 30.2 °F - 24.8 °F 80% 29.81 in 10.0 mi Calm Calm - N/A   Clear
7:55 AM 33.8 °F 30.8 °F 23.0 °F 65% 29.80 in 10.0 mi NW 3.5 mph - N/A   Clear
8:15 AM 33.8 °F 30.8 °F 23.0 °F 65% 29.80 in 10.0 mi NNW 3.5 mph - N/A   Clear
8:55 AM 35.6 °F 30.7 °F 23.0 °F 60% 29.79 in 10.0 mi NNW 5.8 mph - N/A   Mostly Cloudy
9:15 AM 35.6 °F 31.7 °F 23.0 °F 60% 29.80 in 10.0 mi North 4.6 mph - N/A   Scattered Clouds
9:35 AM 35.6 °F 31.7 °F 23.0 °F 60% 29.79 in 10.0 mi NW 4.6 mph - N/A   Partly Cloudy
9:55 AM 35.6 °F 31.7 °F 21.2 °F 56% 29.78 in 10.0 mi North 4.6 mph - N/A   Scattered Clouds
10:15 AM 35.6 °F 29.2 °F 23.0 °F 60% 29.78 in 10.0 mi North 8.1 mph - N/A   Overcast
10:35 AM 35.6 °F 29.9 °F 23.0 °F 60% 29.78 in 10.0 mi North 6.9 mph - N/A   Overcast
10:55 AM 35.6 °F 29.2 °F 23.0 °F 60% 29.77 in 10.0 mi North 8.1 mph - N/A   Overcast
11:15 AM 35.6 °F 31.7 °F 23.0 °F 60% 29.76 in 10.0 mi NNW 4.6 mph - N/A   Mostly Cloudy
11:35 AM 35.6 °F 30.7 °F 23.0 °F 60% 29.76 in 10.0 mi North 5.8 mph - N/A   Partly Cloudy
11:55 AM 33.8 °F 27.7 °F 23.0 °F 65% 29.75 in 10.0 mi NNE 6.9 mph - N/A   Mostly Cloudy
12:35 PM 35.6 °F 30.7 °F 23.0 °F 60% 29.73 in 10.0 mi NNW 5.8 mph - N/A   Mostly Cloudy
12:55 PM 35.6 °F 29.9 °F 23.0 °F 60% 29.73 in 10.0 mi NNW 6.9 mph - N/A   Mostly Cloudy
1:15 PM 35.6 °F 30.7 °F 24.8 °F 65% 29.71 in 9.0 mi North 5.8 mph - N/A   Mostly Cloudy
1:35 PM 35.6 °F 28.0 °F 24.8 °F 65% 29.70 in 10.0 mi North 10.4 mph - N/A Rain Light Rain
1:55 PM 33.8 °F 30.8 °F 24.8 °F 70% 29.70 in 9.0 mi North 3.5 mph - N/A   Mostly Cloudy
2:15 PM 33.8 °F 28.6 °F 24.8 °F 70% 29.69 in 10.0 mi North 5.8 mph - N/A Rain Light Rain
2:35 PM 33.8 °F 28.6 °F 24.8 °F 70% 29.68 in 10.0 mi North 5.8 mph - N/A   Overcast
2:55 PM 33.8 °F 28.6 °F 26.6 °F 75% 29.67 in 3.0 mi NNW 5.8 mph - N/A Snow Light Snow
3:15 PM 32.0 °F 28.7 °F 28.4 °F 87% 29.67 in 3.0 mi NNW 3.5 mph - N/A Snow Light Snow
3:35 PM 32.0 °F 26.4 °F 28.4 °F 87% 29.66 in 1.2 mi North 5.8 mph - N/A Snow Light Snow
3:55 PM 32.0 °F 26.4 °F 30.2 °F 93% 29.66 in 0.8 mi North 5.8 mph - N/A Snow Light Snow
4:15 PM 32.0 °F 28.7 °F 30.2 °F 93% 29.65 in 1.5 mi North 3.5 mph - N/A Snow Light Snow
4:35 PM 32.0 °F 27.5 °F 30.2 °F 93% 29.64 in 4.0 mi NNE 4.6 mph - N/A Rain Rain
4:55 PM 32.0 °F 27.5 °F 30.2 °F 93% 29.64 in 4.0 mi North 4.6 mph - N/A Snow Light Snow
5:15 PM 32.0 °F 27.5 °F 30.2 °F 93% 29.63 in 4.0 mi North 4.6 mph - N/A Snow Light Snow
5:35 PM 32.0 °F 26.4 °F 30.2 °F 93% 29.63 in 9.0 mi North 5.8 mph - N/A Snow Light Snow
5:55 PM 32.0 °F 28.7 °F 30.2 °F 93% 29.63 in 10.0 mi North 3.5 mph - N/A Rain Rain
6:15 PM 32.0 °F 27.5 °F 30.2 °F 93% 29.64 in 3.0 mi North 4.6 mph - N/A   Overcast
6:35 PM 32.0 °F 26.4 °F 30.2 °F 93% 29.64 in 0.5 mi NNW 5.8 mph - N/A Snow Heavy Snow
6:55 PM 32.0 °F - 30.2 °F 93% 29.64 in 0.5 mi Calm Calm - N/A   Overcast
7:15 PM 32.0 °F 28.7 °F 32.0 °F 100% 29.65 in 1.0 mi NNW 3.5 mph - N/A Snow Light Snow
7:35 PM 32.0 °F 26.4 °F 32.0 °F 100% 29.65 in 0.2 mi North 5.8 mph - 0.01 in   Overcast
7:55 PM 32.0 °F 27.5 °F 32.0 °F 100% 29.65 in 0.2 mi NNW 4.6 mph - 0.01 in   Overcast
8:15 PM 32.0 °F 27.5 °F 32.0 °F 100% 29.65 in 0.2 mi North 4.6 mph - N/A   Overcast
8:35 PM 32.0 °F 27.5 °F 32.0 °F 100% 29.65 in 0.5 mi North 4.6 mph - N/A   Overcast
8:55 PM 32.0 °F 28.7 °F 32.0 °F 100% 29.64 in 1.2 mi NNW 3.5 mph - N/A   Overcast
9:15 PM 32.0 °F 27.5 °F 32.0 °F 100% 29.64 in 1.8 mi North 4.6 mph - N/A   Overcast
9:35 PM 32.0 °F 28.7 °F 32.0 °F 100% 29.64 in 1.0 mi North 3.5 mph - N/A   Overcast
9:55 PM 32.0 °F 28.7 °F 32.0 °F 100% 29.64 in 1.0 mi NNW 3.5 mph - 0.02 in   Overcast
10:15 PM 32.0 °F 28.7 °F 32.0 °F 100% 29.63 in 0.8 mi NW 3.5 mph - 0.02 in   Overcast
10:35 PM 32.0 °F - 32.0 °F 100% 29.62 in 0.5 mi Calm Calm - 0.04 in   Overcast
10:55 PM 32.0 °F 28.7 °F 32.0 °F 100% 29.62 in 0.8 mi NW 3.5 mph - 0.05 in   Overcast
11:15 PM 32.0 °F - 32.0 °F 100% 29.62 in 1.0 mi Calm Calm - 0.01 in   Overcast
11:35 PM 32.0 °F - 32.0 °F 100% 29.62 in 1.5 mi Calm Calm - 0.02 in   Overcast
11:55 PM 32.0 °F - 32.0 °F 100% 29.61 in 8.0 mi Calm Calm - 0.03 in   Overcast